Regional Weather Roundup
Issued by NWS

Home | Current Version | Previous Version | Graphics & Text | Print | Product List | Glossary On
Versions: 1 2 3 4 5 6 7 8 9 10 11 12 13 14 15 16 17 18 19 20 21 22 23 24 25 26 27 28 29 30 31 32 33 34 35 36 37 38 39 40 41 42 43 44 45 46 47 48 49 50
000
ASUS43 KMKX 281911
RWRWI

WISCONSIN REGIONAL WEATHER ROUNDUP
NATIONAL WEATHER SERVICE MILWAUKEE/SULLIVAN WI
200 PM CDT SUN MAY 28 2017

NOTE: "FAIR" INDICATES FEW OR NO CLOUDS BELOW 12,000 FEET WITH NO
SIGNIFICANT WEATHER AND/OR OBSTRUCTIONS TO VISIBILITY.

WIZ001-002-006>008-014>016-023>028-282000-
NORTHWEST WISCONSIN

CITY           SKY/WX    TMP DP  RH WIND       PRES   REMARKS
SUPERIOR ARPT  NOT AVBL
ASHLAND        CLOUDY    61  54  77 N9        29.65F
HAYWARD        CLOUDY    66  42  41 VRB6      29.65F
SIREN          MOSUNNY   66  47  50 NW17G23   29.68F
CUMBERLAND     MOSUNNY   63  43  48 W20G28    29.69F
RICE LAKE      SUNNY     66  43  42 W17       29.71S
CHETEK         PTSUNNY   67  47  48 W10G22    29.70S
LADYSMITH      MOSUNNY   67  45  46 SW16G23   29.69F
EAU CLAIRE     MOSUNNY   69  44  40 W22G28    29.70S
MENOMONIE      PTSUNNY   68  46  45 W15G22    29.72S
NEW RICHMOND   MOSUNNY   68  45  43 W15       29.72S
OSCEOLA        PTSUNNY   69  45  42 W14G24    29.74F
$$

WIZ003>005-009-010-017-018-282000-
NORTH CENTRAL WISCONSIN

CITY           SKY/WX    TMP DP  RH WIND       PRES   REMARKS
MANITOWISH WTR RAIN      55  55 100 NW3       29.66R
ARBOR VITAE    HVY RAIN  62  54  74 NW20G26   29.64S
WOODRUFF       HVY RAIN  62  54  74 NW20G26   29.64S
RHINELANDER    PTSUNNY   64  57  78 SW7       29.65S
EAGLE RIVER    CLOUDY    59  51  76 SW8       29.64R
LAND O LAKES   CLOUDY    56  53  87 CALM      29.66R
PHILLIPS       MOSUNNY   66  45  46 SW14G23   29.64S
TOMAHAWK       CLOUDY    66  53  61 SW9G18    29.64F
MEDFORD        PTSUNNY   67  48  50 W22G30    29.67S
MERRILL        CLOUDY    66  52  60 SW8       29.65F
$$

WIZ029-030-035-036-043>047-282000-
CENTRAL WISCONSIN

CITY           SKY/WX    TMP DP  RH WIND       PRES   REMARKS
WAUSAU         CLOUDY    68  51  54 SW17G25   29.64F
MOSINEE        PTSUNNY   64  57  77 SW8       29.67F
MARSHFIELD     MOSUNNY   71  47  42 W16G24    29.66F
STEVENS POINT  PTSUNNY   69  49  49 SW17G23   29.67F
WAUPACA        MOSUNNY   73  51  46 S10       29.68F
WAUTOMA        NOT AVBL
WISC RAPIDS    MOSUNNY   73  53  49 W13       29.67F
CAMP DOUGLAS   MOSUNNY   73  51  46 W15       29.69F
$$

WIZ011>013-019>022-031-037>040-048>050-282000-
NORTHEAST WISCONSIN

CITY           SKY/WX    TMP DP  RH WIND       PRES   REMARKS
ANTIGO         CLOUDY    67  54  63 SW10      29.64F
SHAWANO        MOSUNNY   73  51  45 S6        29.66F
OCONTO         PTSUNNY   67  57  70 S6        29.66F
STURGEON BAY   PTSUNNY   65  57  75 S9        29.68F
GREEN BAY      MOSUNNY   69  60  73 SW9       29.68F
MANITOWOC      MOSUNNY   67  56  67 SW8       29.70F
APPLETON       PTSUNNY   68  52  56 SW10      29.69F
CLINTONVILLE   MOSUNNY   72  50  46 SW13      29.66F
OSHKOSH        SUNNY     70  53  54 W9        29.69F
$$

WIZ032>034-041-042-053>061-282000-
SOUTHWEST WISCONSIN

CITY           SKY/WX    TMP DP  RH WIND       PRES   REMARKS
LA CROSSE      SUNNY     74  47  38 W18G28    29.72R
SPARTA         SUNNY     73  46  38 W17G25    29.71F
VIROQUA        SUNNY     72  42  33 SW17G25   29.74S
BOSCOBEL       MOSUNNY   77  45  32 W14G24    29.73S
PRAIRIE DU CHI SUNNY     76  38  25 W21G28    29.73F
PLATTEVILLE    MOSUNNY   73  55  52 W15       29.76F
$$

WIZ056-057-062-063-064-067-068-282000-
SOUTH CENTRAL WISCONSIN

CITY           SKY/WX    TMP DP  RH WIND       PRES   REMARKS
REEDSBURG      PTSUNNY   72  54  52 SW13      29.70F
BARABOO/DELLS  PTSUNNY   71  52  49 SW14      29.70F
LONE ROCK      MOSUNNY   74  52  46 W17G25    29.71F
MINERAL POINT  PTSUNNY   72  54  53 W13G20    29.75S
MADISON        PTSUNNY   71  54  54 S14       29.72F
MIDDLETON      MOSUNNY   74  53  48 SW9G18    29.73F
WATERTOWN      MOSUNNY   69  58  67 W5        29.73F
MONROE         MOSUNNY   72  50  46 W10G17    29.75F
JANESVILLE     MOSUNNY   72  54  53 W6        29.75F
$$

WIZ051-052-058>065-066-070>072-282000-
SOUTHEAST WISCONSIN

CITY           SKY/WX    TMP DP  RH WIND       PRES   REMARKS
MILWAUKEE      MOSUNNY   69  59  70 VRB6      29.72F
WAUKESHA       MOSUNNY   66  55  68 W9        29.75S
MILWAUKEE/TIMM MOSUNNY   68  54  60 W8        29.74F
RACINE         CLOUDY    68  60  75 W7        29.75S
KENOSHA        PTSUNNY   69  60  73 W9        29.73F
FOND DU LAC    SUNNY     71  54  54 W12       29.71F
SHEBOYGAN      SUNNY     69  58  67 W8        29.70F
WEST BEND      MOSUNNY   68  55  64 SW9       29.71F
JUNEAU         MOSUNNY   67  57  69 SW10      29.74S
$$

LSZ147-162-282000-
LAKE SUPERIOR

STATION/POSITION TIME  TEMP    WIND        PRES    WAVE
                       AIR SEA DIR/SP/G            HT/PER
                 (UTC) (F)     (DEG/KT/KT) (MB)    (FT/S)
W MID LAKE BUOY  1850   46 37  260/ 12/ 14 1004.9R   1
DEVILS ISLAND    1800   49      80/  7/  7 1004.0F
PORT WING        1840   54     350/  2/  5 1004.1F
SAXON HARBOR     1840   53     360/  4/  6 1004.4S
$$

LMZ867-665-643>646-282000-
LAKE MICHIGAN

STATION/POSITION TIME  TEMP    WIND        PRES    WAVE
                       AIR SEA DIR/SP/G            HT/PER
                 (UTC) (F)     (DEG/KT/KT) (MB)    (FT/S)
CHAMBERS ISLAND  1840   61     150/  6/ 10 1004.4F
N MID LAKE BUOY  1850   45 41  150/  6/  8 1006.5F   0
NORTHPORT PIER   1840   51     130/  6/  7 1005.1F
SISTER BAY       1636   56        CALM       N/A
KEWAUNEE LAKESHO 1848   53     170/  8/ 10 1005.3F
SHEBOYGAN LAKESH 1900   54     150/  7/  9 1005.8F
PORT WASHINGTON  1830   61     190/  2/  5 1007.5F
ATWATER BUOY     1809   54      90/  4/  6 1007.3F
MILWAUKEE LAKESH 1850   57     100/  7/  7   N/A
S MID LAKE BUOY  1750   51 48   20/  8/ 10 1007.2S   0
KENOSHA   LAKESH 1800   54      60/  4/  6 1007.5
$$

TC  - TEMPERATURE IN CELSIUS
VSB - VISIBILITY IN STATUTE MILES
WCI - WIND CHILL INDEX
HX  - HEAT INDEX





USA.gov is the U.S. government's official web portal to all federal, state and local government web resources and services.